Regional Weather Roundup
Issued by NWS

Home | Current Version | Previous Version | Graphics & Text | Print | Product List | Glossary On
Versions: 1 2 3 4 5 6 7 8 9 10 11 12 13 14 15 16 17 18 19 20 21 22 23 24 25 26 27 28 29 30 31 32 33 34 35 36 37 38 39 40 41 42 43 44 45 46 47 48 49 50
000
ASUS45 KABQ 301410
RWRNM
WEATHER ROUNDUP FOR NEW MEXICO
NATIONAL WEATHER SERVICE ALBUQUERQUE NM
800 AM MDT THU OCT 30 2014

NOTE: "FAIR" MEANS FEW OR NO CLOUDS BELOW 12,000 FEET AGL WITH NO
       SIGNIFICANT WEATHER OR OBSTRUCTIONS TO VISION.

      THIS PRODUCT IS RELEASED AS TWO VERSIONS.  ONE VERSION NEAR
      THE TOP OF THE HOUR CONTAINING PRELIMINARY DATA FROM ALBUQUERQUE
      AND OTHER STATIONS.  A FINAL VERSION WITH ADDITIONAL DATA IS
      ISSUED ABOUT 10 MINUTES AFTER THE HOUR.

NMZ501-503-504-510>518-301500-
NORTHWEST PLATEAU/NORTHCENTRAL MOUNTAINS

CITY           SKY/WX    TMP DP  RH WIND       PRES   REMARKS
FARMINGTON     CLEAR     33  17  51 E7        30.34R WCI  27
LOS ALAMOS     CLEAR     48  10  21 N3        30.39R
SANTA FE       PTCLDY    39  12  33 N16       30.33R WCI  30
TAOS           PTCLDY    27   9  46 N7        30.40R WCI  19
ANGEL FIRE     FAIR      17  11  76 CALM      30.46R

$$
NMZ402-403-502-505>509-301500-
WESTCENTRAL MOUNTAINS/SOUTHWEST MOUNTAINS

CITY           SKY/WX    TMP DP  RH WIND       PRES   REMARKS
GALLUP         PTCLDY    25  17  72 CALM      30.38R
GRANTS         PTCLDY    27  14  59 NW14      30.40R WCI  15
SILVER CITY    CLEAR     46  32  57 N6        30.29R

$$
NMZ407-409-411-412-301500-
SOUTHERN DESERTS

CITY           SKY/WX    TMP DP  RH WIND       PRES   REMARKS
LORDSBURG      FAIR      39  34  81 S3        30.23R
DEMING         CLEAR     43  37  79 CALM      30.24R
LAS CRUCES     CLEAR     54  37  52 NW7       30.24R
HOLLOMAN AFB   PTCLDY    43  35  71 E2        30.22R
T OR C         CLEAR     48  34  58 NW3       30.27R

$$
NMZ519>523-301500-
CENTRAL VALLEYS/CENTRAL HIGHLANDS

CITY           SKY/WX    TMP DP  RH WIND       PRES   REMARKS
ALBUQUERQUE    PTCLDY    47  13  25 N8        30.32R
DOUBLE EAGLE   CLEAR     45  12  26 N15       30.33R
MORIARTY ARPT  FAIR      27  12  53 NE7       30.36R WCI  19
CLINES CORNERS PTCLDY    43  11  27 N5        30.36R
BELEN          FAIR      39  15  37 NW8       30.32R WCI  33
SOCORRO        FAIR      44  26  49 NW7       30.29R

$$
NMZ524>526-539-540-301500-
SOUTHCENTRAL MOUNTAINS

CITY           SKY/WX    TMP DP  RH WIND       PRES   REMARKS
RUIDOSO        CLEAR     46  28  49 SW5       30.36R

$$
NMZ527>531-301500-
NORTHEAST HIGHLANDS/NORTHEAST PLAINS

CITY           SKY/WX    TMP DP  RH WIND       PRES   REMARKS
LAS VEGAS      PTCLDY    38  15  39 NE9       30.36R WCI  31
RATON          CLEAR     46  21  37 N7        30.37R
CLAYTON        NOT AVBL

$$
NMZ532>537-301500-
EASTCENTRAL PLAINS

CITY           SKY/WX    TMP DP  RH WIND       PRES   REMARKS
TUCUMCARI      CLEAR     50  28  42 NW6       30.23R
CANNON AFB     PTCLDY    51  35  53 N22       30.19R
CLOVIS AIRPORT CLEAR     50  36  57 N17       30.21R

$$
NMZ028-029-538-301500-
SOUTHEAST PLAINS

CITY           SKY/WX    TMP DP  RH WIND       PRES   REMARKS
ROSWELL        PTCLDY    47  41  80 NW6       30.19R
CARLSBAD       CLEAR     50  45  83 NW6       30.17R
HOBBS          CLEAR     54  54 100 W9        30.17R


$$



USA.gov is the U.S. government's official web portal to all federal, state and local government web resources and services.